Flag for U.S.A. Weather past 2 weeks in Charleston, West Virginia, U.S.A.

Now
62 °F

Passing clouds.


Feels Like: 62 °F
Forecast: 46 / 72 °F
Wind: No wind

Location: Yeager Airport


UV Index: 5 (Moderate)

Visibility: 10 mi


Pressure: 30.19 "Hg

Humidity: 43%

Dew point: 39 °F

Location of CharlestonLocation

Historic Weather in Charleston

°F

Charleston temperature yesterday

Maximum temperature yesterday: 69 °F (at 3:54 PM)
Minimum temperature yesterday: 41 °F (at 12:54 AM)
Average temperature yesterday: 55 °F

Past Weeks' High & Low Weather Summary

 TemperatureHumidityPressure
High86 °F (Apr 13, 3:54 PM)100% (Apr 4, 5:54 AM)30.45 "Hg (Apr 4, 5:54 AM)
Low26 °F (Apr 16, 6:54 AM)17% (Apr 13, 6:54 PM)29.42 "Hg (Apr 7, 7:54 PM)
Average57 °F55%29.99 "Hg
* Reported Apr 3 8:54 PM — Apr 18 8:54 PM, Charleston, Weather by CustomWeather, © 2014

Note: Actual official high and low records may vary slightly from our data, if they occured in-between our weather recording intervals... More about our weather records

Advertising

Historic Weather Conditions — Data for Previous 24 hours

 ConditionsComfort  
Time TempWeatherWind HumidityBarometerVisibility
8:54 PM
Apr 18
65 °FPartly sunny.No wind36%30.18 "Hg10 mi
7:54 PM68 °FScattered clouds.7 mph32%30.18 "Hg10 mi
6:54 PM69 °FScattered clouds.6 mph32%30.17 "Hg10 mi
5:54 PM71 °FScattered clouds.3 mph29%30.16 "Hg10 mi
4:54 PM72 °FScattered clouds.No wind28%30.18 "Hg10 mi
3:54 PM71 °FScattered clouds.6 mph29%30.20 "Hg10 mi
2:54 PM72 °FScattered clouds.8 mph30%30.23 "Hg10 mi
1:54 PM70 °FScattered clouds.9 mph30%30.26 "Hg10 mi
12:54 PM69 °FScattered clouds.10 mph29%30.28 "Hg10 mi
11:54 AM67 °FScattered clouds.6 mph25%30.29 "Hg10 mi
10:54 AM64 °FScattered clouds.10 mph26%30.29 "Hg10 mi
9:54 AM59 °FScattered clouds.5 mph31%30.31 "Hg10 mi
8:54 AM53 °FBroken clouds.5 mph38%30.31 "Hg10 mi
7:54 AM48 °FPartly sunny.No wind54%30.31 "Hg10 mi
6:54 AM50 °FPassing clouds.No wind36%30.29 "Hg10 mi
5:54 AM51 °FPassing clouds.No wind35%30.29 "Hg10 mi
4:54 AM51 °FClear.No wind33%30.29 "Hg10 mi
3:54 AM51 °FClear.6 mph35%30.29 "Hg10 mi
2:54 AM52 °FClear.3 mph34%30.28 "Hg10 mi
1:54 AM53 °FClear.9 mph32%30.30 "Hg10 mi
12:54 AM55 °FClear.8 mph30%30.30 "Hg10 mi
11:54 PM
Apr 17
56 °FClear.7 mph30%30.32 "Hg10 mi
10:54 PM58 °FClear.6 mph28%30.32 "Hg10 mi
Weather by CustomWeather, © 2014

See weather overview